Wind_Speed
23 26 26 29 34 33 36 36 36 35 35 36 38 40 42 46 45 40 40 42 45 42 37 34 37 36 36 34 34 35 35 30 25 26 28 36 40 41 38 36 36 37 34 35 36
27 22 25 30 30 29 35 36 36 35 35 34 35 37 40 43 44 39 41 40 43 40 36 34 37 37 37 34 33 34 31 24 24 26 32 37 40 40 37 31 31 34 35 34 34
29 29 30 28 33 31 35 37 37 36 35 34 34 35 37 39 41 39 42 41 44 43 38 35 37 37 38 34 32 32 25 24 24 28 31 33 35 36 35 30 26 30 33 34 36
30 29 31 32 32 30 32 33 36 36 36 34 35 35 36 39 40 38 40 42 43 45 38 36 37 39 37 33 30 30 26 24 24 28 30 30 33 34 35 28 31 31 31 31 34
31 33 33 35 34 33 29 33 35 34 35 34 34 36 37 38 39 39 40 42 42 44 41 37 38 38 35 31 28 27 23 22 23 26 30 33 31 33 38 34 35 32 31 30 30
38 36 35 35 38 38 34 34 34 34 34 34 34 35 36 37 38 38 38 41 41 42 41 38 38 38 36 32 29 26 23 22 20 22 25 30 33 38 34 35 40 39 35 33 32
42 43 41 38 37 42 39 34 37 34 35 35 35 35 34 35 36 37 38 40 40 41 39 37 38 37 35 33 29 27 24 22 21 23 24 28 30 30 32 40 42 41 38 36 35
49 49 49 46 41 40 42 39 39 37 36 36 36 35 33 33 33 35 36 37 38 37 37 37 37 36 33 31 30 29 26 24 24 26 26 27 22 27 31 33 35 44 45 41 38
63 59 55 51 48 43 44 43 39 40 36 38 36 34 34 31 29 30 33 35 36 35 34 35 33 32 31 29 28 26 27 26 26 26 27 29 29 27 29 30 34 38 44 45 42
71 67 54 55 52 48 47 46 46 42 41 35 36 35 34 30 27 25 28 30 30 31 31 31 30 28 27 26 27 27 27 27 26 27 28 31 35 31 32 32 33 35 39 44 45
59 54 49 49 53 55 50 42 51 44 37 35 37 37 34 32 28 27 26 26 27 27 28 29 28 25 25 25 26 27 28 31 31 32 37 37 39 40 38 36 36 39 39 43 48
53 45 45 40 54 60 50 48 49 38 43 41 39 39 36 34 32 29 27 26 26 27 28 28 27 26 25 26 27 28 31 34 38 39 42 44 42 48 49 49 48 46 46 45 47
38 32 32 38 51 55 53 51 40 44 44 44 38 40 38 37 34 32 29 27 27 27 27 27 27 25 25 27 28 31 35 39 43 46 49 53 51 57 57 55 51 49 49 50 50
28 21 24 37 44 51 55 49 46 41 46 46 41 38 40 37 36 34 31 29 28 28 27 26 26 26 27 29 32 35 38 44 47 49 50 51 58 55 54 50 49 50 52 54 54
17 20 21 40 39 59 48 50 39 34 44 45 46 40 39 39 35 34 33 31 29 29 28 29 27 28 29 32 36 38 40 44 46 48 50 52 57 49 53 52 53 55 56 56 59
20 20 20 35 42 62 50 48 46 41 47 42 45 43 38 37 36 35 33 32 31 30 28 28 28 29 32 34 36 39 41 42 46 49 53 51 52 51 51 56 57 56 59 60 60
25 22 21 31 50 66 43 46 49 48 42 42 38 41 38 34 34 33 33 31 29 28 27 28 30 31 31 34 35 37 39 44 45 47 50 44 42 27 24 32 35 39 42 52 62
21 17 13 28 54 69 48 45 48 46 37 36 37 37 40 37 35 32 32 30 28 28 30 30 27 28 29 32 34 36 39 33 41 41 41 44 42 34 40 39 46 53 51 43 55
22 13 11 37 64 53 49 45 42 44 34 29 34 32 31 36 35 33 32 31 31 29 26 25 25 26 28 28 33 32 33 37 39 40 46 50 49 49 45 43 50 56 55 54 45
20 2 20 46 74 57 46 46 38 39 32 27 29 32 30 25 29 29 28 28 27 25 24 24 25 22 24 26 28 32 32 31 35 45 52 54 55 56 50 40 46 51 52 53 49
16 8 26 50 75 55 37 44 38 36 25 25 26 29 31 27 29 28 26 25 24 23 24 24 24 19 22 25 27 28 27 34 39 43 47 51 48 44 42 39 37 41 48 46 48
10 6 24 55 60 50 38 33 31 31 28 23 25 31 33 31 32 29 27 26 24 25 23 23 20 16 17 21 23 30 32 34 37 39 44 44 44 39 37 37 34 36 35 33 35
13 4 23 51 55 40 32 36 35 28 24 24 27 30 36 36 30 30 28 27 26 24 21 19 18 10 13 20 23 23 23 30 34 38 36 38 40 36 26 28 26 30 32 33 36
8 12 22 39 39 32 34 29 32 33 22 22 27 31 33 35 36 31 28 27 25 23 20 19 13 10 10 15 15 16 17 25 35 36 31 29 29 32 22 22 25 29 27 31 39
15 13 29 41 34 32 32 27 33 31 23 19 20 26 32 35 34 31 29 26 24 20 18 15 12 6 10 5 8 16 19 25 27 25 27 26 27 26 26 22 18 26 23 26 35
26 20 39 24 28 29 30 31 31 26 22 16 20 26 29 28 29 25 23 24 21 18 17 14 8 7 3 5 10 12 17 24 22 18 22 22 19 17 17 11 4 14 16 32 37
21 27 40 20 23 26 30 31 25 24 21 21 18 18 19 22 21 21 20 17 17 16 17 12 8 7 7 6 10 14 14 22 19 11 13 11 7 1 9 14 13 24 25 27 31
Wind_Direction
295 275 272 267 242 249 252 252 248 245 247 249 246 243 238 241 242 241 241 240 237 230 232 239 244 242 242 241 244 247 250 254 251 240 235 234 241 249 252 250 249 249 250 249 243
292 292 280 264 262 259 252 252 249 247 247 248 247 243 240 237 238 237 238 238 233 226 227 233 240 241 244 243 244 247 251 248 241 234 231 228 238 246 250 249 249 250 252 253 252
291 288 284 283 266 259 246 250 248 246 246 247 246 244 241 236 234 233 236 233 231 226 223 229 238 240 243 240 242 243 247 245 238 235 231 230 235 242 247 249 249 249 251 252 253
290 289 280 279 272 262 257 245 244 245 245 243 245 245 243 238 237 230 233 235 231 234 230 228 235 236 236 238 240 243 244 241 237 235 232 232 238 244 250 248 248 251 254 254 255
288 285 281 274 274 263 261 248 246 243 241 240 243 243 242 238 235 229 228 234 232 234 233 227 231 232 231 234 236 238 239 240 236 230 230 232 234 244 249 250 254 254 255 255 257
285 278 277 273 265 265 256 251 247 244 240 239 237 239 240 236 231 228 225 228 231 232 231 225 226 228 227 227 232 236 232 237 237 236 235 236 232 243 245 252 257 256 254 254 254
284 280 274 269 264 257 255 248 244 244 236 236 233 234 235 234 229 224 222 223 225 227 228 225 222 224 224 226 232 237 236 236 236 237 237 240 236 248 242 246 255 257 257 255 252
287 278 274 267 260 252 249 240 240 241 233 233 230 230 233 230 227 221 218 220 221 223 224 223 221 220 223 225 228 235 239 240 240 241 244 251 249 250 249 251 256 255 254 253 250
291 284 267 261 255 243 243 240 234 236 229 231 227 226 229 227 223 217 216 216 218 218 219 220 219 217 219 221 225 231 237 240 244 249 252 255 260 253 255 256 257 255 255 255 251
296 286 267 250 243 233 231 233 233 228 228 229 224 223 223 224 218 211 210 209 209 210 211 214 214 214 220 223 226 233 243 247 251 254 254 257 261 258 255 255 259 261 261 256 254
290 280 270 246 228 222 219 220 229 223 224 228 223 220 217 220 216 209 207 205 205 207 207 211 213 222 224 229 236 243 249 255 258 260 259 261 262 265 267 267 262 260 257 255 253
295 276 257 240 220 213 208 212 226 223 220 219 220 218 215 215 216 213 211 211 209 209 212 215 220 226 233 238 245 253 258 262 264 267 267 265 262 268 269 270 267 259 256 255 253
297 286 245 228 218 210 193 207 220 221 221 216 216 217 214 214 214 215 215 218 218 219 221 224 228 237 243 250 256 261 265 270 270 271 272 271 267 266 267 269 267 264 258 253 252
306 292 229 211 215 196 189 200 208 220 221 217 215 216 214 213 215 216 219 222 225 228 232 236 242 247 252 260 263 266 270 273 274 275 275 274 272 269 271 268 262 260 256 251 248
352 321 232 204 203 182 187 194 202 212 222 216 213 212 214 215 215 218 222 226 228 233 239 245 249 255 260 264 267 271 273 274 276 277 277 276 277 273 272 267 263 256 254 251 247
332 334 303 209 185 177 180 182 192 205 219 216 213 213 214 214 215 220 223 229 234 238 242 248 252 258 261 267 272 274 275 279 279 281 278 281 283 277 282 273 269 265 257 250 248
310 296 280 212 182 179 167 181 194 200 210 213 214 212 212 213 214 216 223 227 232 237 241 249 256 261 269 272 275 279 282 283 284 283 284 283 280 289 286 274 263 260 259 255 247
316 305 263 193 180 191 184 182 191 195 208 212 210 211 212 214 215 215 221 227 234 240 246 249 254 262 266 271 276 280 282 283 280 283 286 283 282 284 280 270 261 264 267 259 251
332 298 186 176 166 166 171 173 187 194 197 206 205 205 208 214 219 221 224 230 234 237 242 247 256 263 269 278 283 280 277 273 284 288 289 291 294 290 287 281 263 265 263 266 271
341 164 166 173 173 161 166 174 188 191 192 197 199 203 205 200 206 210 211 215 224 232 241 250 262 272 283 283 274 272 278 288 291 289 294 300 299 300 294 276 267 259 257 258 265
54 126 172 177 179 170 174 167 176 181 182 188 198 200 204 202 207 208 210 220 229 237 250 260 269 283 283 274 274 279 293 292 291 296 299 300 309 304 295 282 268 258 253 252 250
82 23 175 185 173 169 162 160 163 184 192 198 196 197 205 208 213 219 227 230 237 247 254 267 279 288 272 270 284 296 299 293 294 300 295 304 310 307 290 285 263 248 236 230 231
56 113 164 181 178 174 171 169 182 180 181 193 199 202 207 213 215 221 229 238 246 250 262 275 288 254 258 284 294 301 299 295 293 292 301 298 317 299 291 275 257 238 237 230 207
67 127 165 174 160 169 165 167 174 180 188 198 200 199 205 211 217 225 233 239 248 258 266 281 250 253 283 285 298 329 324 314 296 296 296 311 315 294 275 266 244 245 239 226 217
125 143 169 165 161 157 155 169 183 191 198 196 203 203 207 211 217 225 232 238 246 258 272 243 227 257 284 278 322 342 319 321 303 298 299 316 304 314 311 304 279 257 251 198 188
123 121 160 146 146 153 159 165 169 174 185 200 196 200 202 210 218 223 227 233 244 254 247 222 242 222 257 313 351 330 332 333 335 323 311 325 306 300 285 299 147 155 181 166 167
133 139 164 157 158 162 166 165 172 188 199 214 214 198 197 202 211 212 223 233 241 240 219 215 219 210 245 325 335 338 338 336 346 1 343 343 338 9 118 108 139 134 134 148 156
Height
5698 5696 5696 5696 5696 5698 5700 5701 5703 5705 5708 5712 5715 5719 5722 5727 5732 5737 5741 5744 5749 5753 5758 5763 5766 5769 5772 5774 5777 5777 5777 5781 5787 5789 5791 5790 5789 5790 5794 5797 5799 5801 5803 5806 5809
5691 5689 5687 5686 5688 5688 5691 5693 5694 5697 5700 5703 5706 5710 5713 5717 5722 5728 5731 5737 5742 5745 5749 5754 5759 5762 5765 5766 5769 5770 5772 5778 5779 5780 5780 5781 5783 5784 5788 5791 5794 5796 5798 5800 5802
5683 5681 5680 5677 5678 5679 5682 5684 5687 5688 5691 5694 5697 5702 5705 5708 5713 5719 5722 5728 5733 5737 5740 5746 5752 5754 5758 5760 5763 5764 5768 5768 5770 5772 5774 5775 5777 5778 5781 5786 5790 5789 5790 5793 5794
5676 5674 5672 5671 5670 5671 5672 5674 5678 5680 5683 5686 5690 5693 5697 5700 5706 5710 5713 5719 5724 5730 5733 5738 5743 5746 5751 5753 5756 5758 5761 5761 5763 5765 5768 5770 5771 5773 5774 5782 5780 5782 5784 5786 5788
5667 5665 5664 5662 5661 5661 5663 5665 5668 5671 5674 5677 5682 5686 5689 5694 5697 5701 5705 5709 5716 5722 5727 5729 5735 5739 5743 5746 5750 5751 5754 5755 5757 5759 5762 5763 5766 5767 5766 5772 5773 5776 5777 5779 5780
5657 5656 5655 5654 5653 5652 5653 5656 5659 5662 5665 5670 5674 5679 5682 5686 5688 5693 5697 5701 5708 5713 5719 5723 5727 5732 5736 5739 5742 5746 5747 5748 5751 5754 5755 5757 5759 5754 5764 5767 5764 5766 5770 5772 5773
5645 5643 5642 5642 5643 5642 5644 5647 5650 5653 5657 5662 5667 5672 5675 5679 5681 5685 5689 5694 5700 5706 5712 5716 5720 5725 5728 5732 5735 5738 5741 5741 5745 5747 5748 5749 5751 5753 5759 5756 5756 5758 5761 5763 5765
5628 5626 5625 5626 5628 5631 5633 5636 5640 5644 5648 5654 5659 5665 5668 5672 5675 5679 5682 5687 5693 5699 5705 5709 5713 5717 5721 5725 5727 5730 5734 5735 5737 5739 5742 5743 5748 5748 5749 5750 5750 5747 5749 5752 5756
5604 5602 5603 5606 5610 5616 5620 5625 5628 5634 5640 5646 5651 5657 5662 5667 5670 5673 5676 5681 5686 5692 5697 5703 5707 5711 5714 5717 5721 5724 5726 5728 5729 5732 5734 5736 5738 5741 5741 5741 5741 5741 5740 5742 5746
5572 5566 5571 5578 5588 5598 5605 5612 5617 5624 5631 5638 5644 5651 5656 5661 5664 5668 5672 5676 5680 5685 5691 5697 5702 5705 5706 5710 5714 5717 5718 5721 5722 5724 5725 5727 5729 5730 5731 5732 5733 5734 5734 5734 5737
5542 5537 5538 5549 5562 5576 5590 5598 5604 5613 5624 5632 5637 5641 5647 5654 5659 5663 5668 5671 5675 5680 5686 5691 5696 5699 5701 5704 5706 5709 5710 5712 5713 5714 5715 5717 5720 5720 5721 5723 5724 5724 5724 5724 5725
5511 5510 5516 5525 5536 5553 5571 5580 5595 5609 5612 5618 5626 5633 5640 5646 5653 5658 5663 5668 5671 5676 5680 5686 5689 5692 5695 5698 5699 5700 5702 5703 5704 5704 5706 5707 5713 5708 5709 5711 5711 5713 5714 5715 5715
5490 5489 5495 5505 5517 5536 5557 5571 5587 5595 5602 5609 5618 5624 5632 5640 5646 5652 5658 5662 5667 5671 5675 5679 5684 5687 5688 5690 5691 5692 5693 5693 5694 5693 5694 5693 5698 5696 5698 5699 5699 5700 5702 5703 5704
5479 5479 5482 5492 5505 5524 5545 5565 5576 5586 5592 5601 5609 5617 5625 5633 5639 5646 5652 5658 5663 5667 5671 5674 5677 5679 5681 5682 5682 5684 5684 5683 5682 5681 5681 5681 5676 5683 5683 5685 5686 5684 5684 5685 5688
5476 5475 5475 5481 5496 5518 5537 5554 5567 5576 5581 5592 5600 5609 5618 5626 5635 5640 5646 5652 5657 5661 5667 5668 5670 5672 5674 5674 5674 5675 5674 5672 5670 5668 5667 5666 5659 5672 5667 5668 5666 5667 5666 5667 5668
5474 5471 5475 5478 5491 5509 5526 5541 5556 5566 5571 5583 5593 5602 5612 5620 5628 5634 5641 5647 5651 5655 5659 5661 5663 5666 5666 5665 5665 5665 5664 5662 5659 5656 5653 5652 5646 5658 5653 5650 5648 5648 5646 5647 5651
5470 5467 5467 5472 5487 5499 5515 5531 5545 5555 5569 5579 5588 5598 5607 5615 5622 5629 5635 5641 5646 5650 5653 5655 5657 5657 5658 5657 5656 5655 5654 5651 5648 5644 5642 5639 5634 5642 5641 5632 5629 5626 5625 5628 5631
5464 5460 5459 5468 5477 5490 5511 5524 5538 5550 5563 5573 5584 5591 5601 5609 5616 5623 5629 5635 5640 5644 5646 5648 5651 5650 5650 5650 5649 5648 5646 5643 5635 5631 5630 5625 5624 5630 5625 5623 5616 5609 5607 5612 5616
5459 5456 5455 5464 5477 5492 5508 5519 5534 5549 5563 5571 5579 5588 5596 5604 5612 5619 5625 5630 5633 5637 5640 5641 5644 5644 5644 5643 5642 5639 5636 5631 5628 5623 5615 5613 5613 5612 5606 5604 5600 5593 5594 5597 5603
5458 5454 5458 5466 5478 5494 5507 5520 5535 5549 5560 5568 5576 5585 5593 5600 5607 5613 5619 5624 5627 5631 5633 5636 5637 5637 5636 5635 5632 5630 5629 5626 5619 5610 5602 5598 5593 5589 5583 5583 5577 5576 5578 5581 5586
5460 5459 5461 5468 5478 5496 5510 5520 5535 5548 5558 5566 5573 5582 5590 5597 5603 5608 5613 5619 5622 5625 5627 5628 5630 5633 5631 5627 5625 5623 5622 5616 5609 5602 5594 5585 5583 5575 5568 5563 5558 5558 5561 5564 5570
5465 5466 5466 5472 5487 5502 5513 5525 5537 5548 5558 5564 5571 5578 5585 5593 5599 5604 5608 5612 5617 5619 5621 5622 5625 5626 5624 5621 5619 5617 5613 5606 5599 5594 5580 5575 5570 5559 5552 5546 5546 5546 5547 5551 5558
5469 5469 5471 5482 5493 5504 5515 5526 5537 5548 5556 5562 5568 5575 5582 5589 5596 5600 5603 5608 5610 5613 5615 5617 5619 5619 5618 5617 5614 5612 5607 5599 5590 5582 5578 5566 5559 5544 5541 5536 5535 5535 5538 5543 5547
5477 5478 5481 5491 5502 5511 5519 5529 5539 5548 5555 5560 5565 5571 5578 5585 5592 5596 5600 5603 5605 5607 5610 5611 5613 5615 5615 5612 5608 5604 5598 5592 5582 5574 5569 5561 5555 5543 5536 5531 5529 5531 5534 5535 5539
5480 5483 5492 5499 5508 5514 5522 5531 5540 5548 5555 5560 5564 5569 5575 5581 5587 5592 5596 5600 5602 5604 5606 5608 5609 5609 5608 5607 5604 5598 5594 5587 5577 5571 5564 5558 5550 5544 5538 5533 5530 5527 5527 5530 5539
5487 5491 5497 5503 5511 5518 5525 5534 5542 5548 5555 5559 5562 5566 5571 5577 5583 5587 5593 5596 5598 5600 5602 5605 5604 5604 5604 5602 5598 5596 5590 5582 5575 5568 5563 5556 5549 5543 5538 5533 5529 5527 5529 5536 5547
5492 5496 5504 5511 5516 5522 5529 5537 5545 5550 5554 5558 5563 5568 5571 5575 5579 5584 5588 5591 5594 5598 5599 5600 5600 5601 5602 5597 5594 5592 5587 5580 5574 5568 5565 5558 5551 5545 5540 5536 5535 5536 5541 5549 5555